contact:dominique.lefevre@mio.osupytheas.fr, maurice.libes@osupytheas.fr, didier.mallarino@osupytheas.fr
Project:EMSO http://www.emso-fr.org/EMSO-France
Depth: 2436.0 m
Title:EMSO Ligure Ouest : Data MII capteur OXYGEN
DateTime,Latitude,Longitude,Optode-Type,Optode_Serial,Oxygen,Saturation_Oxygen,Temperature
DateTime,Latitude,Longitude,Optode-Type,Optode_Serial,µmol.l-1,%,degC
2017-10-29T00:01:33,42.805,6.029,4330,1995,196.959,60.231,13.287
2017-10-29T00:04:33,42.805,6.029,4330,1995,196.876,60.206,13.287
2017-10-29T00:07:33,42.805,6.029,4330,1995,196.979,60.236,13.286
2017-10-29T00:10:33,42.805,6.029,4330,1995,197.233,60.314,13.286
2017-10-29T00:13:33,42.805,6.029,4330,1995,197.169,60.295,13.286
2017-10-29T00:16:33,42.805,6.029,4330,1995,196.998,60.243,13.286
2017-10-29T00:19:33,42.805,6.029,4330,1995,196.745,60.166,13.287
2017-10-29T00:22:33,42.805,6.029,4330,1995,196.881,60.210,13.289
2017-10-29T00:25:33,42.805,6.029,4330,1995,196.950,60.229,13.287
2017-10-29T00:28:33,42.805,6.029,4330,1995,196.836,60.193,13.286
2017-10-29T00:31:33,42.805,6.029,4330,1995,197.076,60.268,13.287
2017-10-29T00:34:33,42.805,6.029,4330,1995,197.146,60.287,13.286
2017-10-29T00:37:33,42.805,6.029,4330,1995,197.200,60.304,13.286
2017-10-29T00:40:33,42.805,6.029,4330,1995,197.125,60.281,13.286
2017-10-29T00:43:33,42.805,6.029,4330,1995,197.023,60.250,13.286
2017-10-29T00:46:33,42.805,6.029,4330,1995,197.001,60.244,13.287
2017-10-29T00:49:33,42.805,6.029,4330,1995,197.069,60.264,13.286
2017-10-29T00:52:33,42.805,6.029,4330,1995,197.090,60.270,13.286
2017-10-29T00:55:33,42.805,6.029,4330,1995,197.110,60.277,13.287
2017-10-29T00:58:33,42.805,6.029,4330,1995,196.992,60.241,13.287
2017-10-29T01:01:33,42.805,6.029,4330,1995,197.025,60.252,13.287
2017-10-29T01:04:33,42.805,6.029,4330,1995,197.509,60.400,13.287
2017-10-29T01:07:33,42.805,6.029,4330,1995,197.447,60.381,13.287
2017-10-29T01:10:33,42.805,6.029,4330,1995,197.385,60.361,13.286
2017-10-29T01:13:33,42.805,6.029,4330,1995,197.264,60.324,13.287
2017-10-29T01:16:33,42.805,6.029,4330,1995,197.306,60.337,13.287
2017-10-29T01:19:33,42.805,6.029,4330,1995,197.356,60.352,13.286
2017-10-29T01:22:33,42.805,6.029,4330,1995,197.469,60.387,13.287
2017-10-29T01:25:33,42.805,6.029,4330,1995,197.717,60.463,13.286
2017-10-29T01:28:33,42.805,6.029,4330,1995,197.419,60.371,13.287
2017-10-29T01:31:33,42.805,6.029,4330,1995,197.175,60.298,13.288
2017-10-29T01:34:33,42.805,6.029,4330,1995,197.190,60.302,13.287
2017-10-29T01:37:33,42.805,6.029,4330,1995,197.310,60.340,13.287
2017-10-29T01:40:33,42.805,6.029,4330,1995,197.626,60.436,13.288
2017-10-29T01:43:33,42.805,6.029,4330,1995,197.454,60.383,13.287
2017-10-29T01:46:33,42.805,6.029,4330,1995,197.817,60.494,13.287
2017-10-29T01:49:33,42.805,6.029,4330,1995,197.898,60.519,13.287
2017-10-29T01:52:33,42.805,6.029,4330,1995,197.808,60.492,13.288
2017-10-29T01:55:33,42.805,6.029,4330,1995,197.706,60.458,13.286
2017-10-29T01:58:33,42.805,6.029,4330,1995,197.545,60.409,13.286
2017-10-29T02:01:33,42.805,6.029,4330,1995,197.490,60.394,13.287
2017-10-29T02:04:33,42.805,6.029,4330,1995,197.848,60.503,13.287
2017-10-29T02:07:33,42.805,6.029,4330,1995,198.023,60.557,13.288
2017-10-29T02:10:33,42.805,6.029,4330,1995,198.100,60.579,13.286
2017-10-29T02:13:33,42.805,6.029,4330,1995,198.196,60.608,13.286
2017-10-29T02:16:33,42.805,6.029,4330,1995,197.785,60.484,13.287
2017-10-29T02:19:33,42.805,6.029,4330,1995,197.851,60.503,13.286
2017-10-29T02:22:33,42.805,6.029,4330,1995,197.776,60.481,13.287
2017-10-29T02:25:33,42.805,6.029,4330,1995,197.803,60.489,13.286
2017-10-29T02:28:33,42.805,6.029,4330,1995,197.958,60.536,13.286
2017-10-29T02:31:33,42.805,6.029,4330,1995,198.006,60.552,13.287
2017-10-29T02:34:33,42.805,6.029,4330,1995,197.763,60.477,13.287
2017-10-29T02:37:33,42.805,6.029,4330,1995,198.004,60.552,13.287
2017-10-29T02:40:33,42.805,6.029,4330,1995,197.781,60.484,13.288
2017-10-29T02:43:33,42.805,6.029,4330,1995,197.782,60.484,13.288
2017-10-29T02:46:33,42.805,6.029,4330,1995,197.624,60.436,13.288
2017-10-29T02:49:33,42.805,6.029,4330,1995,197.913,60.522,13.286
2017-10-29T02:52:33,42.805,6.029,4330,1995,198.020,60.556,13.287
2017-10-29T02:55:33,42.805,6.029,4330,1995,197.845,60.502,13.286
2017-10-29T02:58:33,42.805,6.029,4330,1995,198.059,60.567,13.287
2017-10-29T03:01:33,42.805,6.029,4330,1995,198.015,60.554,13.287
2017-10-29T03:04:33,42.805,6.029,4330,1995,198.001,60.551,13.287
2017-10-29T03:07:33,42.805,6.029,4330,1995,197.752,60.474,13.287
2017-10-29T03:10:33,42.805,6.029,4330,1995,197.659,60.446,13.287
2017-10-29T03:13:33,42.805,6.029,4330,1995,197.578,60.423,13.288
2017-10-29T03:16:33,42.805,6.029,4330,1995,197.641,60.442,13.289
2017-10-29T03:19:33,42.805,6.029,4330,1995,197.646,60.440,13.286
2017-10-29T03:22:33,42.805,6.029,4330,1995,197.541,60.412,13.289
2017-10-29T03:25:33,42.805,6.029,4330,1995,197.569,60.418,13.287
2017-10-29T03:28:33,42.805,6.029,4330,1995,197.841,60.501,13.287
2017-10-29T03:31:33,42.805,6.029,4330,1995,197.760,60.478,13.288
2017-10-29T03:34:33,42.805,6.029,4330,1995,197.964,60.539,13.287
2017-10-29T03:37:33,42.805,6.029,4330,1995,197.804,60.491,13.288
2017-10-29T03:40:33,42.805,6.029,4330,1995,197.541,60.410,13.287
2017-10-29T03:43:33,42.805,6.029,4330,1995,197.880,60.513,13.287
2017-10-29T03:46:33,42.805,6.029,4330,1995,197.590,60.425,13.288
2017-10-29T03:49:33,42.805,6.029,4330,1995,197.655,60.444,13.286
2017-10-29T03:52:33,42.805,6.029,4330,1995,197.632,60.437,13.287
2017-10-29T03:55:33,42.805,6.029,4330,1995,197.599,60.426,13.286
2017-10-29T03:58:33,42.805,6.029,4330,1995,197.761,60.479,13.289
2017-10-29T04:01:33,42.805,6.029,4330,1995,197.727,60.466,13.287
2017-10-29T04:04:33,42.805,6.029,4330,1995,198.022,60.555,13.286
2017-10-29T04:07:33,42.805,6.029,4330,1995,197.886,60.514,13.286
2017-10-29T04:10:33,42.805,6.029,4330,1995,197.616,60.431,13.286
2017-10-29T04:13:33,42.805,6.029,4330,1995,197.419,60.371,13.286
2017-10-29T04:16:33,42.805,6.029,4330,1995,197.651,60.442,13.286
2017-10-29T04:19:33,42.805,6.029,4330,1995,197.626,60.436,13.287
2017-10-29T04:22:33,42.805,6.029,4330,1995,197.368,60.357,13.287
2017-10-29T04:25:33,42.805,6.029,4330,1995,197.019,60.249,13.287
2017-10-29T04:28:33,42.805,6.029,4330,1995,197.224,60.313,13.287
2017-10-29T04:31:33,42.805,6.029,4330,1995,197.345,60.349,13.287
2017-10-29T04:34:33,42.805,6.029,4330,1995,197.309,60.338,13.286
2017-10-29T04:37:33,42.805,6.029,4330,1995,197.087,60.270,13.287
2017-10-29T04:40:33,42.805,6.029,4330,1995,197.063,60.263,13.287
2017-10-29T04:43:33,42.805,6.029,4330,1995,196.965,60.233,13.287
2017-10-29T04:46:33,42.805,6.029,4330,1995,196.651,60.137,13.287
2017-10-29T04:49:33,42.805,6.029,4330,1995,196.823,60.189,13.287
2017-10-29T04:52:33,42.805,6.029,4330,1995,196.912,60.219,13.288
2017-10-29T04:55:33,42.805,6.029,4330,1995,196.545,60.105,13.287
2017-10-29T04:58:33,42.805,6.029,4330,1995,196.325,60.040,13.289
2017-10-29T05:01:33,42.805,6.029,4330,1995,196.360,60.049,13.288
2017-10-29T05:04:33,42.805,6.029,4330,1995,196.575,60.114,13.287
2017-10-29T05:07:33,42.805,6.029,4330,1995,196.638,60.135,13.288
2017-10-29T05:10:33,42.805,6.029,4330,1995,196.399,60.062,13.288
2017-10-29T05:13:33,42.805,6.029,4330,1995,196.101,59.970,13.288
2017-10-29T05:16:33,42.805,6.029,4330,1995,195.926,59.916,13.288
2017-10-29T05:19:33,42.805,6.029,4330,1995,195.835,59.889,13.288
2017-10-29T05:22:33,42.805,6.029,4330,1995,195.661,59.836,13.288
2017-10-29T05:25:33,42.805,6.029,4330,1995,195.402,59.756,13.288
2017-10-29T05:28:33,42.805,6.029,4330,1995,195.218,59.703,13.290
2017-10-29T05:31:33,42.805,6.029,4330,1995,194.867,59.595,13.290
2017-10-29T05:34:33,42.805,6.029,4330,1995,194.990,59.630,13.288
2017-10-29T05:37:33,42.805,6.029,4330,1995,195.461,59.773,13.287
2017-10-29T05:40:33,42.805,6.029,4330,1995,195.885,59.903,13.287
2017-10-29T05:43:33,42.805,6.029,4330,1995,196.067,59.960,13.288
2017-10-29T05:46:33,42.805,6.029,4330,1995,196.045,59.952,13.287
2017-10-29T05:49:33,42.805,6.029,4330,1995,196.027,59.946,13.287
2017-10-29T05:52:33,42.805,6.029,4330,1995,196.055,59.956,13.287
2017-10-29T05:55:33,42.805,6.029,4330,1995,195.883,59.903,13.287
2017-10-29T05:58:33,42.805,6.029,4330,1995,195.910,59.911,13.287
2017-10-29T06:01:33,42.805,6.029,4330,1995,195.925,59.915,13.287
2017-10-29T06:04:33,42.805,6.029,4330,1995,195.550,59.802,13.288
2017-10-29T06:07:33,42.805,6.029,4330,1995,195.428,59.766,13.289
2017-10-29T06:10:33,42.805,6.029,4330,1995,195.224,59.704,13.289
2017-10-29T06:13:33,42.805,6.029,4330,1995,195.037,59.647,13.289
2017-10-29T06:16:33,42.805,6.029,4330,1995,194.729,59.553,13.290
2017-10-29T06:19:33,42.805,6.029,4330,1995,194.644,59.525,13.288
2017-10-29T06:22:33,42.805,6.029,4330,1995,194.920,59.608,13.287
2017-10-29T06:25:33,42.805,6.029,4330,1995,195.252,59.711,13.288
2017-10-29T06:28:33,42.805,6.029,4330,1995,194.943,59.618,13.289
2017-10-29T06:31:33,42.805,6.029,4330,1995,194.678,59.536,13.289
2017-10-29T06:34:33,42.805,6.029,4330,1995,194.436,59.462,13.288
2017-10-29T06:37:33,42.805,6.029,4330,1995,194.355,59.437,13.289
2017-10-29T06:40:33,42.805,6.029,4330,1995,194.790,59.570,13.289
2017-10-29T06:43:33,42.805,6.029,4330,1995,194.787,59.569,13.289
2017-10-29T06:46:33,42.805,6.029,4330,1995,194.866,59.593,13.288
2017-10-29T06:49:33,42.805,6.029,4330,1995,194.946,59.617,13.288
2017-10-29T06:52:33,42.805,6.029,4330,1995,194.717,59.547,13.288
2017-10-29T06:55:33,42.805,6.029,4330,1995,194.541,59.494,13.289
2017-10-29T06:58:33,42.805,6.029,4330,1995,194.370,59.442,13.289
2017-10-29T07:01:33,42.805,6.029,4330,1995,194.285,59.416,13.289
2017-10-29T07:04:33,42.805,6.029,4330,1995,194.014,59.338,13.292
2017-10-29T07:07:33,42.805,6.029,4330,1995,193.661,59.229,13.292
2017-10-29T07:10:33,42.805,6.029,4330,1995,193.574,59.199,13.289
2017-10-29T07:13:33,42.805,6.029,4330,1995,193.541,59.187,13.288
2017-10-29T07:16:33,42.805,6.029,4330,1995,194.155,59.375,13.287
2017-10-29T07:19:33,42.805,6.029,4330,1995,194.576,59.504,13.288
2017-10-29T07:22:33,42.805,6.029,4330,1995,195.099,59.664,13.288
2017-10-29T07:25:33,42.805,6.029,4330,1995,195.480,59.780,13.288
2017-10-29T07:28:33,42.805,6.029,4330,1995,195.722,59.854,13.288
2017-10-29T07:31:33,42.805,6.029,4330,1995,196.048,59.953,13.287
2017-10-29T07:34:33,42.805,6.029,4330,1995,196.467,60.081,13.287
2017-10-29T07:37:33,42.805,6.029,4330,1995,196.592,60.120,13.287
2017-10-29T07:40:33,42.805,6.029,4330,1995,196.763,60.172,13.287
2017-10-29T07:43:33,42.805,6.029,4330,1995,196.690,60.149,13.287
2017-10-29T07:46:33,42.805,6.029,4330,1995,196.605,60.123,13.287
2017-10-29T07:49:33,42.805,6.029,4330,1995,196.630,60.132,13.288
2017-10-29T07:52:33,42.805,6.029,4330,1995,196.532,60.101,13.287
2017-10-29T07:55:33,42.805,6.029,4330,1995,196.584,60.117,13.287
2017-10-29T07:58:33,42.805,6.029,4330,1995,196.731,60.161,13.286
2017-10-29T08:01:33,42.805,6.029,4330,1995,196.764,60.172,13.287
2017-10-29T08:04:33,42.805,6.029,4330,1995,196.818,60.188,13.287
2017-10-29T08:07:33,42.805,6.029,4330,1995,196.817,60.187,13.287
2017-10-29T08:10:33,42.805,6.029,4330,1995,196.987,60.239,13.287
2017-10-29T08:13:33,42.805,6.029,4330,1995,196.961,60.232,13.287
2017-10-29T08:16:33,42.805,6.029,4330,1995,196.960,60.231,13.286
2017-10-29T08:19:33,42.805,6.029,4330,1995,197.093,60.271,13.286
2017-10-29T08:22:33,42.805,6.029,4330,1995,197.164,60.294,13.287
2017-10-29T08:25:33,42.805,6.029,4330,1995,197.149,60.289,13.287
2017-10-29T08:28:33,42.805,6.029,4330,1995,197.178,60.298,13.287
2017-10-29T08:31:33,42.805,6.029,4330,1995,197.210,60.307,13.286
2017-10-29T08:34:33,42.805,6.029,4330,1995,197.331,60.345,13.286
2017-10-29T08:37:33,42.805,6.029,4330,1995,197.178,60.298,13.286
2017-10-29T08:40:33,42.805,6.029,4330,1995,197.255,60.321,13.286
2017-10-29T08:43:33,42.805,6.029,4330,1995,197.236,60.315,13.286
2017-10-29T08:46:33,42.805,6.029,4330,1995,197.233,60.315,13.286
2017-10-29T08:49:33,42.805,6.029,4330,1995,197.189,60.301,13.286
2017-10-29T08:52:33,42.805,6.029,4330,1995,197.270,60.325,13.286
2017-10-29T08:55:33,42.805,6.029,4330,1995,197.510,60.399,13.286
2017-10-29T08:58:33,42.805,6.029,4330,1995,197.632,60.436,13.286
2017-10-29T09:01:33,42.805,6.029,4330,1995,197.509,60.399,13.286
2017-10-29T09:04:33,42.805,6.029,4330,1995,197.468,60.386,13.286
2017-10-29T09:07:33,42.805,6.029,4330,1995,197.191,60.302,13.287
2017-10-29T09:10:33,42.805,6.029,4330,1995,197.139,60.286,13.286
2017-10-29T09:13:33,42.805,6.029,4330,1995,197.032,60.253,13.287
2017-10-29T09:16:33,42.805,6.029,4330,1995,197.027,60.252,13.287
2017-10-29T09:19:33,42.805,6.029,4330,1995,197.039,60.256,13.287
2017-10-29T09:22:33,42.805,6.029,4330,1995,197.051,60.259,13.287
2017-10-29T09:25:33,42.805,6.029,4330,1995,197.054,60.260,13.287
2017-10-29T09:28:33,42.805,6.029,4330,1995,197.032,60.253,13.287
2017-10-29T09:31:33,42.805,6.029,4330,1995,196.964,60.233,13.287
2017-10-29T09:34:33,42.805,6.029,4330,1995,196.721,60.158,13.286
2017-10-29T09:37:33,42.805,6.029,4330,1995,196.789,60.179,13.287
2017-10-29T09:40:33,42.805,6.029,4330,1995,196.685,60.147,13.287
2017-10-29T09:43:33,42.805,6.029,4330,1995,196.760,60.170,13.287
2017-10-29T09:46:33,42.805,6.029,4330,1995,196.700,60.152,13.287
2017-10-29T09:49:33,42.805,6.029,4330,1995,196.741,60.165,13.287
2017-10-29T09:52:33,42.805,6.029,4330,1995,196.729,60.160,13.286
2017-10-29T09:55:33,42.805,6.029,4330,1995,196.714,60.156,13.287
2017-10-29T09:58:33,42.805,6.029,4330,1995,196.622,60.128,13.287
2017-10-29T10:01:33,42.805,6.029,4330,1995,196.668,60.143,13.287
2017-10-29T10:04:33,42.805,6.029,4330,1995,196.462,60.079,13.287
2017-10-29T10:07:33,42.805,6.029,4330,1995,196.352,60.046,13.287
2017-10-29T10:10:33,42.805,6.029,4330,1995,196.457,60.078,13.287
2017-10-29T10:13:33,42.805,6.029,4330,1995,196.806,60.185,13.287
2017-10-29T10:16:33,42.805,6.029,4330,1995,196.807,60.184,13.286
2017-10-29T10:19:33,42.805,6.029,4330,1995,196.694,60.150,13.287
2017-10-29T10:22:33,42.805,6.029,4330,1995,196.759,60.169,13.286
2017-10-29T10:25:33,42.805,6.029,4330,1995,196.772,60.174,13.287
2017-10-29T10:28:33,42.805,6.029,4330,1995,196.595,60.120,13.287
2017-10-29T10:31:33,42.805,6.029,4330,1995,196.605,60.123,13.287
2017-10-29T10:34:33,42.805,6.029,4330,1995,196.831,60.192,13.287
2017-10-29T10:37:33,42.805,6.029,4330,1995,196.821,60.189,13.286
2017-10-29T10:40:33,42.805,6.029,4330,1995,196.697,60.151,13.287
2017-10-29T10:43:33,42.805,6.029,4330,1995,196.788,60.179,13.287
2017-10-29T10:46:33,42.805,6.029,4330,1995,196.855,60.199,13.286
2017-10-29T10:49:33,42.805,6.029,4330,1995,196.926,60.221,13.286
2017-10-29T10:52:33,42.805,6.029,4330,1995,196.727,60.160,13.287
2017-10-29T10:55:33,42.805,6.029,4330,1995,196.563,60.111,13.287
2017-10-29T10:58:33,42.805,6.029,4330,1995,196.644,60.135,13.287
2017-10-29T11:01:33,42.805,6.029,4330,1995,196.760,60.171,13.287
2017-10-29T11:04:33,42.805,6.029,4330,1995,196.410,60.064,13.287
2017-10-29T11:07:33,42.805,6.029,4330,1995,196.324,60.038,13.287
2017-10-29T11:10:33,42.805,6.029,4330,1995,196.723,60.159,13.287
2017-10-29T11:13:33,42.805,6.029,4330,1995,196.421,60.066,13.286
2017-10-29T11:16:33,42.805,6.029,4330,1995,196.377,60.053,13.287
2017-10-29T11:19:33,42.805,6.029,4330,1995,196.557,60.108,13.287
2017-10-29T11:22:33,42.805,6.029,4330,1995,196.460,60.079,13.287
2017-10-29T11:25:33,42.805,6.029,4330,1995,196.649,60.136,13.287
2017-10-29T11:28:33,42.805,6.029,4330,1995,196.659,60.139,13.287
2017-10-29T11:31:33,42.805,6.029,4330,1995,196.731,60.161,13.287
2017-10-29T11:34:33,42.805,6.029,4330,1995,196.529,60.099,13.286
2017-10-29T11:37:33,42.805,6.029,4330,1995,196.815,60.187,13.287
2017-10-29T11:40:33,42.805,6.029,4330,1995,196.757,60.169,13.286
2017-10-29T11:43:33,42.805,6.029,4330,1995,197.154,60.289,13.286
2017-10-29T11:46:33,42.805,6.029,4330,1995,197.003,60.244,13.286
2017-10-29T11:49:33,42.805,6.029,4330,1995,196.976,60.236,13.286
2017-10-29T11:52:33,42.805,6.029,4330,1995,197.064,60.262,13.286
2017-10-29T11:55:33,42.805,6.029,4330,1995,197.220,60.312,13.287
2017-10-29T11:58:33,42.805,6.029,4330,1995,197.114,60.278,13.286
2017-10-29T12:01:33,42.805,6.029,4330,1995,197.203,60.305,13.286
2017-10-29T12:04:33,42.805,6.029,4330,1995,196.868,60.203,13.286
2017-10-29T12:07:33,42.805,6.029,4330,1995,197.042,60.257,13.287
2017-10-29T12:10:33,42.805,6.029,4330,1995,197.244,60.317,13.286
2017-10-29T12:13:33,42.805,6.029,4330,1995,197.429,60.374,13.286
2017-10-29T12:16:33,42.805,6.029,4330,1995,197.292,60.332,13.286
2017-10-29T12:19:33,42.805,6.029,4330,1995,197.371,60.356,13.286
2017-10-29T12:22:33,42.805,6.029,4330,1995,197.447,60.379,13.286
2017-10-29T12:25:33,42.805,6.029,4330,1995,197.267,60.326,13.287
2017-10-29T12:28:33,42.805,6.029,4330,1995,197.234,60.315,13.286
2017-10-29T12:31:33,42.805,6.029,4330,1995,197.287,60.330,13.286
2017-10-29T12:34:33,42.805,6.029,4330,1995,197.564,60.415,13.286
2017-10-29T12:37:33,42.805,6.029,4330,1995,197.836,60.499,13.286
2017-10-29T12:40:33,42.805,6.029,4330,1995,197.695,60.456,13.286
2017-10-29T12:43:33,42.805,6.029,4330,1995,197.747,60.472,13.287
2017-10-29T12:46:33,42.805,6.029,4330,1995,197.727,60.465,13.286
2017-10-29T12:49:33,42.805,6.029,4330,1995,197.704,60.460,13.287
2017-10-29T12:52:33,42.805,6.029,4330,1995,197.817,60.495,13.288
2017-10-29T12:55:33,42.805,6.029,4330,1995,197.999,60.548,13.286
2017-10-29T12:58:33,42.805,6.029,4330,1995,197.875,60.511,13.287
2017-10-29T13:01:33,42.805,6.029,4330,1995,198.039,60.561,13.287
2017-10-29T13:04:33,42.805,6.029,4330,1995,197.907,60.520,13.286
2017-10-29T13:07:33,42.805,6.029,4330,1995,197.945,60.532,13.286
2017-10-29T13:10:33,42.805,6.029,4330,1995,197.855,60.504,13.286
2017-10-29T13:13:33,42.805,6.029,4330,1995,197.601,60.426,13.286
2017-10-29T13:16:33,42.805,6.029,4330,1995,197.598,60.426,13.286
2017-10-29T13:19:33,42.805,6.029,4330,1995,197.726,60.465,13.287
2017-10-29T13:22:33,42.805,6.029,4330,1995,197.857,60.505,13.286
2017-10-29T13:25:33,42.805,6.029,4330,1995,197.757,60.475,13.287
2017-10-29T13:28:33,42.805,6.029,4330,1995,197.619,60.432,13.286
2017-10-29T13:31:33,42.805,6.029,4330,1995,197.832,60.497,13.286
2017-10-29T13:34:33,42.805,6.029,4330,1995,197.911,60.521,13.286
2017-10-29T13:37:33,42.805,6.029,4330,1995,197.779,60.481,13.286
2017-10-29T13:40:33,42.805,6.029,4330,1995,197.590,60.423,13.286
2017-10-29T13:43:33,42.805,6.029,4330,1995,197.526,60.404,13.286
2017-10-29T13:46:33,42.805,6.029,4330,1995,197.452,60.381,13.286
2017-10-29T13:49:33,42.805,6.029,4330,1995,197.540,60.408,13.286
2017-10-29T13:52:33,42.805,6.029,4330,1995,197.665,60.446,13.286
2017-10-29T13:55:33,42.805,6.029,4330,1995,197.719,60.463,13.286
2017-10-29T13:58:33,42.805,6.029,4330,1995,197.753,60.473,13.286
2017-10-29T14:01:33,42.805,6.029,4330,1995,197.434,60.376,13.286
2017-10-29T14:04:33,42.805,6.029,4330,1995,197.461,60.384,13.287
2017-10-29T14:07:33,42.805,6.029,4330,1995,197.453,60.382,13.287
2017-10-29T14:10:33,42.805,6.029,4330,1995,197.402,60.366,13.286
2017-10-29T14:13:33,42.805,6.029,4330,1995,197.115,60.279,13.287
2017-10-29T14:16:33,42.805,6.029,4330,1995,197.020,60.249,13.286
2017-10-29T14:19:33,42.805,6.029,4330,1995,197.448,60.380,13.286
2017-10-29T14:22:33,42.805,6.029,4330,1995,197.172,60.296,13.286
2017-10-29T14:25:33,42.805,6.029,4330,1995,197.348,60.350,13.287
2017-10-29T14:28:33,42.805,6.029,4330,1995,197.447,60.380,13.286
2017-10-29T14:31:33,42.805,6.029,4330,1995,197.434,60.375,13.286
2017-10-29T14:34:33,42.805,6.029,4330,1995,197.662,60.446,13.287
2017-10-29T14:37:33,42.805,6.029,4330,1995,197.346,60.349,13.286
2017-10-29T14:40:33,42.805,6.029,4330,1995,197.193,60.302,13.286
2017-10-29T14:43:33,42.805,6.029,4330,1995,197.210,60.307,13.286
2017-10-29T14:46:33,42.805,6.029,4330,1995,197.281,60.330,13.287
2017-10-29T14:49:33,42.805,6.029,4330,1995,197.258,60.323,13.287
2017-10-29T14:52:33,42.805,6.029,4330,1995,197.463,60.385,13.287
2017-10-29T14:55:33,42.805,6.029,4330,1995,197.305,60.337,13.286
2017-10-29T14:58:33,42.805,6.029,4330,1995,197.058,60.262,13.287
2017-10-29T15:01:33,42.805,6.029,4330,1995,196.987,60.239,13.286
2017-10-29T15:04:33,42.805,6.029,4330,1995,196.952,60.229,13.287
2017-10-29T15:07:33,42.805,6.029,4330,1995,196.989,60.242,13.288
2017-10-29T15:10:33,42.805,6.029,4330,1995,197.024,60.252,13.287
2017-10-29T15:13:33,42.805,6.029,4330,1995,196.820,60.189,13.287
2017-10-29T15:16:33,42.805,6.029,4330,1995,196.583,60.119,13.289
2017-10-29T15:19:33,42.805,6.029,4330,1995,196.527,60.098,13.286
2017-10-29T15:22:33,42.805,6.029,4330,1995,196.806,60.184,13.286
2017-10-29T15:25:33,42.805,6.029,4330,1995,197.077,60.266,13.286
2017-10-29T15:28:33,42.805,6.029,4330,1995,196.958,60.230,13.286
2017-10-29T15:31:33,42.805,6.029,4330,1995,197.435,60.376,13.286
2017-10-29T15:34:33,42.805,6.029,4330,1995,197.630,60.436,13.286
2017-10-29T15:37:33,42.805,6.029,4330,1995,197.129,60.283,13.287
2017-10-29T15:40:33,42.805,6.029,4330,1995,197.005,60.245,13.286
2017-10-29T15:43:33,42.805,6.029,4330,1995,196.928,60.221,13.286
2017-10-29T15:46:33,42.805,6.029,4330,1995,197.076,60.267,13.286
2017-10-29T15:49:33,42.805,6.029,4330,1995,197.226,60.312,13.286
2017-10-29T15:52:33,42.805,6.029,4330,1995,197.324,60.342,13.286
2017-10-29T15:55:33,42.805,6.029,4330,1995,197.469,60.387,13.287
2017-10-29T15:58:33,42.805,6.029,4330,1995,197.346,60.349,13.286
2017-10-29T16:01:33,42.805,6.029,4330,1995,197.273,60.327,13.286
2017-10-29T16:04:33,42.805,6.029,4330,1995,197.392,60.363,13.286
2017-10-29T16:07:33,42.805,6.029,4330,1995,197.394,60.364,13.286
2017-10-29T16:10:33,42.805,6.029,4330,1995,197.326,60.343,13.286
2017-10-29T16:13:33,42.805,6.029,4330,1995,197.317,60.340,13.286
2017-10-29T16:16:33,42.805,6.029,4330,1995,197.059,60.261,13.286
2017-10-29T16:19:33,42.805,6.029,4330,1995,197.209,60.307,13.287
2017-10-29T16:22:33,42.805,6.029,4330,1995,197.143,60.286,13.286
2017-10-29T16:25:33,42.805,6.029,4330,1995,197.067,60.264,13.286
2017-10-29T16:28:33,42.805,6.029,4330,1995,197.019,60.249,13.286
2017-10-29T16:31:33,42.805,6.029,4330,1995,197.177,60.297,13.286
2017-10-29T16:34:33,42.805,6.029,4330,1995,197.150,60.288,13.286
2017-10-29T16:37:33,42.805,6.029,4330,1995,197.184,60.299,13.286
2017-10-29T16:40:33,42.805,6.029,4330,1995,197.368,60.356,13.286
2017-10-29T16:43:33,42.805,6.029,4330,1995,197.304,60.336,13.286
2017-10-29T16:46:33,42.805,6.029,4330,1995,197.312,60.338,13.286
2017-10-29T16:49:33,42.805,6.029,4330,1995,197.481,60.390,13.286
2017-10-29T16:52:33,42.805,6.029,4330,1995,197.423,60.372,13.286
2017-10-29T16:55:33,42.805,6.029,4330,1995,197.167,60.295,13.287
2017-10-29T16:58:33,42.805,6.029,4330,1995,196.901,60.215,13.288
2017-10-29T17:01:33,42.805,6.029,4330,1995,196.741,60.164,13.287
2017-10-29T17:04:33,42.805,6.029,4330,1995,196.630,60.130,13.286
2017-10-29T17:07:32,42.805,6.029,4330,1995,196.845,60.196,13.286
2017-10-29T17:10:32,42.805,6.029,4330,1995,197.143,60.286,13.286
2017-10-29T17:13:32,42.805,6.029,4330,1995,197.006,60.245,13.286
2017-10-29T17:16:32,42.805,6.029,4330,1995,197.252,60.320,13.286
2017-10-29T17:19:32,42.805,6.029,4330,1995,197.070,60.265,13.287
2017-10-29T17:22:32,42.805,6.029,4330,1995,197.180,60.299,13.287
2017-10-29T17:25:32,42.805,6.029,4330,1995,197.214,60.309,13.287
2017-10-29T17:28:32,42.805,6.029,4330,1995,196.948,60.228,13.287
2017-10-29T17:31:32,42.805,6.029,4330,1995,197.102,60.274,13.286
2017-10-29T17:34:32,42.805,6.029,4330,1995,197.095,60.272,13.286
2017-10-29T17:37:32,42.805,6.029,4330,1995,197.101,60.274,13.286
2017-10-29T17:40:32,42.805,6.029,4330,1995,196.990,60.240,13.286
2017-10-29T17:43:32,42.805,6.029,4330,1995,196.810,60.185,13.286
2017-10-29T17:46:32,42.805,6.029,4330,1995,197.004,60.244,13.286
2017-10-29T17:49:32,42.805,6.029,4330,1995,196.900,60.212,13.286
2017-10-29T17:52:32,42.805,6.029,4330,1995,196.936,60.223,13.286
2017-10-29T17:55:32,42.805,6.029,4330,1995,197.204,60.306,13.287
2017-10-29T17:58:32,42.805,6.029,4330,1995,197.182,60.299,13.287
2017-10-29T18:01:32,42.805,6.029,4330,1995,197.477,60.389,13.286
2017-10-29T18:04:32,42.805,6.029,4330,1995,197.516,60.401,13.286
2017-10-29T18:07:32,42.805,6.029,4330,1995,197.574,60.419,13.287